Location: Boiro
(42.6475°N, 8.8834°W)
Time: 18:23:09
(UTC+01:00)

Explorer 11/Cluster Stage 4 - Pass Details

Date: 09 December 2021
Orbit: 467 x 1255 km, 28.8° (Epoch: 23 January)

Event Time Altitude Azimuth Distance (km) Brightness Sun altitude
Exits shadow 05:18:52 14° 162° (SSE) 2,627 9.3 -38.7°
Drops below altitude 10° 05:20:26 10° 151° (SSE) 2,970 9.7 -38.4°
Sets 05:24:23 0° 135° (SE) 4,046 10.7 -37.6°
